"Pseudo-MPEC" for P10N2gl

Created 2019 Apr 23 0:07:04 UT using Find_Orb

Click here for an explanation of pseudo-MPECs

 
 Astrometry: 
     P10N2gl  C2019 04 08iSoG*j3y/AstrometryK$'2mU'+:YGc4;6'[C,%f9t3CFvNLU/,KF51
     P10N2gl  C2019 04 08uy_@\`^JUt+k=7p)PEpMcp$kBY!N*P(dSA^i[Bm6py[gjRpAwfH:F51
     P10N2gl  C2019 04 087L,Y_abC7D-Delgredacted;Fh[6_ZrL$$wEU=HoTt!h4bPWTt?xF51
     P10N2gl  C2019 04 099efclick_S!Ol5!s9%J9hereZgaPv5+dIHn[hT'?t@ruI?0K8JPbF51
     P10N2gl  C2019 04 09ce)$o%9C=7x$YR3:q-4C)^m/Tq9p4XT8M3R(1o*HGc\Svv$]1GfIF51
     P10N2gl  C2019 04 0942L+%C@^QXedfordmu3Rx4;4gk0kNumox1]0]h6ZbN1A9P_-%s9WF51
     P10N2gl  C2019 04 09-.kuyV@'QgPexplanation*x3:6V*JX69rfyYELr#YZn.YJ):VpEF51

Station data:
(F51) Pan-STARRS 1, Haleakala  (N20.707235 W156.255910)  US/Hawaii.
   Observers N. Primak, A. Schultz, S. Watters, J. Thiel, T. Goggia. Measurer
   PS1 Science Consortium. 1.8-m Ritchey-Chrétien + CCD.

Orbital elements:  P10N2gl
   Perihelion 2019 Feb 25.609481 +/- 4.4 TT = 14:37:39 (JD 2458540.109481)
Epoch 2019 Apr  9.0 TT = JDT 2458582.5   Earth MOID: 0.0516   AutoNEOCP
M  17.78522817 +/- 3.4              (J2000 ecliptic)
n   0.41955674 +/- 0.131            Peri.  337.09652 +/- 16
a   1.76715879 +/- 0.366            Node   178.93328 +/- 7
e   0.4169741 +/- 0.155             Incl.    8.57124 +/- 2.1
P   2.35/858.03d           H 25.5   G  0.15   U 11.4  
q 1.03029927 +/- 0.0526    Q 2.50401831 +/- 0.674
From 7 observations 2019 Apr. 8-9 (25.5 hr); mean residual 0".07
Residuals in arcseconds: 
190408 F51  .07+  .02+    190409 F51  .04+  .02+    190409 F51  .02+  .01-    
190408 F51  .13-  .08-    190409 F51  .10-  .10-    
190408 F51  .06+  .06+    190409 F51  .04+  .09+    

Ephemerides (geocentric):
Date (UTC) HH   RA              Dec         delta   r     elong  mag " sig PA
---- -- -- --  -------------   -----------  ------ ------ -----  --- ---- ---
2019 04 23 00  14 53 42.424   +13 37 24.93  .20745 1.1909 150.9 23.6  200  29
2019 04 23 01  14 53 42.467   +13 37 31.68  .20766 1.1911 150.9 23.6  201  29
2019 04 23 02  14 53 42.506   +13 37 38.33  .20787 1.1913 150.9 23.6  201  29
2019 04 23 03  14 53 42.542   +13 37 44.88  .20808 1.1915 150.9 23.6  202  29
2019 04 23 04  14 53 42.574   +13 37 51.33  .20829 1.1917 151.0 23.6  203  29
2019 04 23 05  14 53 42.603   +13 37 57.69  .20850 1.1919 151.0 23.6  204  29
2019 04 23 06  14 53 42.630   +13 38 03.94  .20871 1.1921 151.0 23.6  205  29
2019 04 23 07  14 53 42.653   +13 38 10.10  .20892 1.1923 151.0 23.6  205  29
2019 04 23 08  14 53 42.672   +13 38 16.16  .20913 1.1925 151.0 23.6  206  29
2019 04 23 09  14 53 42.689   +13 38 22.13  .20934 1.1927 151.0 23.6  207  29
2019 04 23 10  14 53 42.702   +13 38 27.99  .20955 1.1929 151.0 23.6  208  29
2019 04 23 11  14 53 42.712   +13 38 33.76  .20976 1.1931 151.0 23.6  209  29
2019 04 23 12  14 53 42.720   +13 38 39.43  .20997 1.1934 151.0 23.6  210  29
2019 04 23 13  14 53 42.724   +13 38 45.01  .21019 1.1936 151.0 23.6  210  29
2019 04 23 14  14 53 42.725   +13 38 50.48  .21040 1.1938 151.0 23.6  211  29
2019 04 23 15  14 53 42.722   +13 38 55.86  .21061 1.1940 151.0 23.6  212  29
2019 04 23 16  14 53 42.717   +13 39 01.15  .21082 1.1942 151.0 23.6  213  29
2019 04 23 17  14 53 42.709   +13 39 06.34  .21103 1.1944 151.0 23.6  214  29
2019 04 23 18  14 53 42.698   +13 39 11.43  .21124 1.1946 151.0 23.6  215  29
2019 04 23 19  14 53 42.683   +13 39 16.42  .21146 1.1948 151.0 23.6  215  29
2019 04 23 20  14 53 42.666   +13 39 21.32  .21167 1.1950 151.0 23.6  216  29
2019 04 23 21  14 53 42.645   +13 39 26.13  .21188 1.1952 151.0 23.6  217  29
2019 04 23 22  14 53 42.622   +13 39 30.84  .21209 1.1954 151.0 23.6  218  29
2019 04 23 23  14 53 42.596   +13 39 35.45  .21230 1.1957 151.0 23.6  219  29
2019 04 24 00  14 53 42.567   +13 39 39.97  .21252 1.1959 151.0 23.6  220  29
2019 04 24 01  14 53 42.534   +13 39 44.39  .21273 1.1961 151.0 23.6  220  29
2019 04 24 02  14 53 42.499   +13 39 48.72  .21294 1.1963 151.0 23.6  221  29
2019 04 24 03  14 53 42.461   +13 39 52.96  .21316 1.1965 151.0 23.7  222  29
2019 04 24 04  14 53 42.420   +13 39 57.09  .21337 1.1967 151.0 23.7  223  29
2019 04 24 05  14 53 42.377   +13 40 01.14  .21358 1.1969 151.0 23.7  224  29
2019 04 24 06  14 53 42.330   +13 40 05.09  .21379 1.1971 151.0 23.7  224  29
2019 04 24 07  14 53 42.280   +13 40 08.95  .21401 1.1973 151.0 23.7  225  29
2019 04 24 08  14 53 42.228   +13 40 12.71  .21422 1.1975 151.0 23.7  226  29
2019 04 24 09  14 53 42.173   +13 40 16.38  .21443 1.1978 151.0 23.7  227  29
2019 04 24 10  14 53 42.115   +13 40 19.95  .21465 1.1980 151.0 23.7  228  29
2019 04 24 11  14 53 42.054   +13 40 23.44  .21486 1.1982 151.0 23.7  229  29
2019 04 24 12  14 53 41.991   +13 40 26.83  .21508 1.1984 151.0 23.7  229  29
2019 04 24 13  14 53 41.925   +13 40 30.12  .21529 1.1986 151.0 23.7  230  29
2019 04 24 14  14 53 41.856   +13 40 33.32  .21550 1.1988 151.0 23.7  231  29
2019 04 24 15  14 53 41.784   +13 40 36.43  .21572 1.1990 151.1 23.7  232  29
2019 04 24 16  14 53 41.710   +13 40 39.45  .21593 1.1992 151.1 23.7  233  29
2019 04 24 17  14 53 41.632   +13 40 42.38  .21615 1.1994 151.1 23.7  234  29
2019 04 24 18  14 53 41.553   +13 40 45.21  .21636 1.1997 151.1 23.7  234  29
2019 04 24 19  14 53 41.470   +13 40 47.95  .21658 1.1999 151.1 23.7  235  29
2019 04 24 20  14 53 41.385   +13 40 50.60  .21679 1.2001 151.1 23.7  236  29
2019 04 24 21  14 53 41.297   +13 40 53.15  .21701 1.2003 151.1 23.7  237  29
2019 04 24 22  14 53 41.207   +13 40 55.62  .21722 1.2005 151.1 23.7  238  29
2019 04 24 23  14 53 41.114   +13 40 57.99  .21744 1.2007 151.1 23.7  239  29